This demonstration page uses our WeatherBlox Daily Observations layout. Learn more.

Hourly Observations for February 1, 2019

Temp ( °F °C ) Dew Point ( °F °C ) Humidity (%) Winds ( mph kmh ) Pressure ( in mb ) Visibility ( mi km ) Precip ( " mm )
12:54 am 00:54 Clear 14 -10 9 -12.8 80 80 S 3 6 30.14 1021 10 16.0934 0 0
1:54 am 01:54 Clear 14 -10 10 -12.2 84 84 Calm 30.14 1021 10 16.0934 0 0
2:54 am 02:54 Clear 11 -11.7 8 -13.3 88 88 Calm 30.15 1021 10 16.0934 0 0
3:54 am 03:54 Clear 12 -11.1 9 -12.8 87 87 S 5 7 30.15 1021 10 16.0934 0 0
4:54 am 04:54 Clear 13 -10.6 9 -12.8 84 84 S 3 6 30.14 1021 10 16.0934 0 0
5:54 am 05:54 Clear 13 -10.6 9 -12.8 84 84 SSW 3 6 30.16 1021 10 16.0934 0 0
6:54 am 06:54 Clear 13 -10.6 8 -13.3 81 81 Calm 30.15 1021 9 14.48406 0 0
7:54 am 07:54 Sunny 15 -9.4 11 -11.7 84 84 Calm 30.16 1021 9 14.48406 0 0
8:54 am 08:54 Sunny 19 -7.2 15 -9.4 84 84 Calm 30.16 1022 9 14.48406 0 0
9:54 am 09:54 Sunny 26 -3.3 19 -7.2 75 75 S 8 13 30.16 1022 10 16.0934 0 0
10:54 am 10:54 Sunny 32 0 22 -5.6 66 66 SSE 8 13 30.17 1022 10 16.0934 0 0
11:54 am 11:54 Sunny 38 3.3 25 -3.9 60 60 S 12 19 30.15 1021 10 16.0934 0 0
12:54 pm 12:54 Sunny 40 4.4 27 -2.8 60 60 S 13 20 30.13 1020 10 16.0934 0 0
1:54 pm 13:54 Sunny 42 5.6 28 -2.2 58 58 S 13 20 30.1 1019 10 16.0934 0 0
2:54 pm 14:54 Sunny 42 5.6 29 -1.7 60 60 S 13 20 30.08 1019 10 16.0934 0 0
3:54 pm 15:54 Sunny 42 5.6 30 -1.1 62 62 S 13 20 30.08 1019 10 16.0934 0 0
4:54 pm 16:54 Sunny 41 5 31 -0.6 67 67 S 12 19 30.07 1018 10 16.0934 0 0
5:54 pm 17:54 Clear 38 3.3 30 -1.1 73 73 SSE 9 15 30.06 1018 10 16.0934 0 0
6:54 pm 18:54 Clear 35 1.7 29 -1.7 78 78 S 7 11 30.06 1018 10 16.0934 0 0
7:54 pm 19:54 Clear 33 0.6 28 -2.2 82 82 SSE 9 15 30.06 1018 10 16.0934 0 0
8:54 pm 20:54 Clear 32 0 27 -2.8 82 82 S 10 17 30.06 1018 10 16.0934 0 0
9:54 pm 21:54 Clear 37 2.8 30 -1.1 76 76 S 12 19 30.05 1018 10 16.0934 0 0
10:54 pm 22:54 Clear 37 2.8 32 0 82 82 S 12 19 30.05 1018 10 16.0934 0 0
11:54 pm 23:54 Clear 39 3.9 34 1.1 82 82 SSW 10 17 30.04 1017 9 14.48406 0 0

Powered by AerisWeather